Time,TemperatureF,DewpointF,PressureIn,WindDirection,WindDirectionDegrees,WindSpeedMPH,WindSpeedGustMPH,Humidity,HourlyPrecipIn,Conditions,Clouds,dailyrainin,SolarRadiationWatts/m^2,SoftwareType,DateUTC
2013-08-08 00:02:00,75.0,75.0,-100.00,SW,218,1.0,5.0,100,0.00,,,0.05,0.000000,,2013-08-08 05:02:00,
2013-08-08 00:11:00,75.0,75.0,-100.00,SW,218,1.0,5.0,100,0.00,,,0.05,0.000000,,2013-08-08 05:11:00,
2013-08-08 00:43:00,76.0,75.0,-100.00,SW,228,3.0,5.0,98,0.00,,,0.05,0.000000,,2013-08-08 05:43:00,
2013-08-08 00:52:00,76.0,75.0,-100.00,SW,228,3.0,5.0,98,0.00,,,0.05,0.000000,,2013-08-08 05:52:00,
2013-08-08 01:01:00,76.0,75.0,-100.00,SW,228,3.0,5.0,98,0.00,,,0.05,0.000000,,2013-08-08 06:01:00,
2013-08-08 01:12:00,76.0,75.0,-100.00,SW,228,3.0,5.0,98,0.00,,,0.05,0.000000,,2013-08-08 06:12:00,
2013-08-08 01:43:00,74.0,74.0,-100.00,SE,129,0.0,3.0,99,0.00,,,0.05,0.000000,,2013-08-08 06:43:00,
2013-08-08 01:52:00,74.0,74.0,-100.00,SE,129,0.0,3.0,99,0.00,,,0.05,0.000000,,2013-08-08 06:52:00,
2013-08-08 02:01:00,74.0,74.0,-100.00,SE,129,0.0,3.0,99,0.00,,,0.05,0.000000,,2013-08-08 07:01:00,
2013-08-08 02:12:00,74.0,74.0,-100.00,SE,129,0.0,3.0,99,0.00,,,0.05,0.000000,,2013-08-08 07:12:00,
2013-08-08 02:43:00,73.0,73.0,-100.00,South,177,0.0,2.0,100,0.00,,,0.05,0.000000,,2013-08-08 07:43:00,
2013-08-08 02:53:00,73.0,73.0,-100.00,South,177,0.0,2.0,100,0.00,,,0.05,0.000000,,2013-08-08 07:53:00,
2013-08-08 03:02:00,73.0,73.0,-100.00,South,177,0.0,2.0,100,0.00,,,0.05,0.000000,,2013-08-08 08:02:00,
2013-08-08 03:11:00,73.0,73.0,-100.00,South,177,0.0,2.0,100,0.00,,,0.05,0.000000,,2013-08-08 08:11:00,
2013-08-08 03:43:00,73.0,73.0,-100.00,SSW,204,0.0,2.0,100,0.00,,,0.05,0.000000,,2013-08-08 08:43:00,
2013-08-08 03:53:00,73.0,73.0,-100.00,SSW,204,0.0,2.0,100,0.00,,,0.05,0.000000,,2013-08-08 08:53:00,
2013-08-08 04:02:00,73.0,73.0,-100.00,SSW,204,0.0,2.0,100,0.00,,,0.05,0.000000,,2013-08-08 09:02:00,
2013-08-08 04:12:00,73.0,73.0,-100.00,SSW,204,0.0,2.0,100,0.00,,,0.05,0.000000,,2013-08-08 09:12:00,
2013-08-08 04:43:00,72.0,72.0,-100.00,West,264,0.0,2.0,100,0.00,,,0.05,0.000000,,2013-08-08 09:43:00,
2013-08-08 04:53:00,72.0,72.0,-100.00,West,264,0.0,2.0,100,0.00,,,0.05,0.000000,,2013-08-08 09:53:00,
2013-08-08 05:01:00,72.0,72.0,-100.00,West,264,0.0,2.0,100,0.00,,,0.05,0.000000,,2013-08-08 10:01:00,
2013-08-08 05:12:00,72.0,72.0,-100.00,West,264,0.0,2.0,100,0.00,,,0.05,0.000000,,2013-08-08 10:12:00,
2013-08-08 05:43:00,70.0,70.0,-100.00,ENE,76,0.0,2.0,100,0.00,,,0.05,0.000000,,2013-08-08 10:43:00,
2013-08-08 05:52:00,70.0,70.0,-100.00,ENE,76,0.0,2.0,100,0.00,,,0.05,0.000000,,2013-08-08 10:52:00,
2013-08-08 06:02:00,70.0,70.0,-100.00,ENE,76,0.0,2.0,100,0.00,,,0.05,0.000000,,2013-08-08 11:02:00,
2013-08-08 06:11:00,70.0,70.0,-100.00,ENE,76,0.0,2.0,100,0.00,,,0.05,0.000000,,2013-08-08 11:11:00,
2013-08-08 06:43:00,71.0,71.0,-100.00,ENE,64,1.0,3.0,100,0.00,,,0.05,2.000000,,2013-08-08 11:43:00,
2013-08-08 06:52:00,71.0,71.0,-100.00,ENE,64,1.0,3.0,100,0.00,,,0.05,2.000000,,2013-08-08 11:52:00,
2013-08-08 07:01:00,71.0,71.0,-100.00,ENE,64,1.0,3.0,100,0.00,,,0.05,2.000000,,2013-08-08 12:01:00,
2013-08-08 07:11:00,71.0,71.0,-100.00,ENE,64,1.0,3.0,100,0.00,,,0.05,2.000000,,2013-08-08 12:11:00,
2013-08-08 07:43:00,74.0,74.0,-100.00,SE,144,2.0,3.0,100,0.00,,,0.05,54.000000,,2013-08-08 12:43:00,
2013-08-08 07:53:00,74.0,74.0,-100.00,SE,144,2.0,3.0,100,0.00,,,0.05,54.000000,,2013-08-08 12:53:00,
2013-08-08 08:01:00,74.0,74.0,-100.00,SE,144,2.0,3.0,100,0.00,,,0.05,54.000000,,2013-08-08 13:01:00,
2013-08-08 08:11:00,74.0,74.0,-100.00,SE,144,2.0,3.0,100,0.00,,,0.05,54.000000,,2013-08-08 13:11:00,
2013-08-08 08:43:00,75.0,75.0,-100.00,ESE,115,4.0,6.0,100,0.00,,,0.05,81.000000,,2013-08-08 13:43:00,
2013-08-08 08:53:00,75.0,75.0,-100.00,ESE,115,4.0,6.0,100,0.00,,,0.05,81.000000,,2013-08-08 13:53:00,
2013-08-08 09:02:00,75.0,75.0,-100.00,ESE,115,4.0,6.0,100,0.00,,,0.05,81.000000,,2013-08-08 14:02:00,
2013-08-08 09:11:00,75.0,75.0,-100.00,ESE,115,4.0,6.0,100,0.00,,,0.05,81.000000,,2013-08-08 14:11:00,
2013-08-08 09:43:00,77.0,76.0,-100.00,SE,136,1.0,4.0,96,0.00,,,0.01,70.000000,,2013-08-08 14:43:00,
2013-08-08 09:53:00,77.0,76.0,-100.00,SE,136,1.0,4.0,96,0.00,,,0.01,70.000000,,2013-08-08 14:53:00,
2013-08-08 10:02:00,77.0,76.0,-100.00,SE,136,1.0,4.0,96,0.00,,,0.01,70.000000,,2013-08-08 15:02:00,
2013-08-08 10:11:00,77.0,76.0,-100.00,SE,136,1.0,4.0,96,0.00,,,0.01,70.000000,,2013-08-08 15:11:00,
2013-08-08 10:43:00,78.0,76.0,-100.00,ESE,117,2.0,5.0,93,0.00,,,0.01,123.000000,,2013-08-08 15:43:00,
2013-08-08 10:53:00,78.0,76.0,-100.00,ESE,117,2.0,5.0,93,0.00,,,0.01,123.000000,,2013-08-08 15:53:00,
2013-08-08 11:02:00,78.0,76.0,-100.00,ESE,117,2.0,5.0,93,0.00,,,0.01,123.000000,,2013-08-08 16:02:00,
2013-08-08 11:11:00,78.0,76.0,-100.00,ESE,117,2.0,5.0,93,0.00,,,0.01,123.000000,,2013-08-08 16:11:00,
2013-08-08 11:42:00,80.0,76.0,-100.00,South,184,2.0,4.0,88,0.00,,,0.01,167.000000,,2013-08-08 16:42:00,
2013-08-08 11:52:00,80.0,76.0,-100.00,South,184,2.0,4.0,88,0.00,,,0.01,167.000000,,2013-08-08 16:52:00,
2013-08-08 12:02:00,80.0,76.0,-100.00,South,184,2.0,4.0,88,0.00,,,0.01,167.000000,,2013-08-08 17:02:00,
2013-08-08 12:11:00,80.0,76.0,-100.00,South,184,2.0,4.0,88,0.00,,,0.01,167.000000,,2013-08-08 17:11:00,
2013-08-08 12:43:00,80.0,77.0,-100.00,SSE,160,2.0,6.0,90,0.00,,,0.01,140.000000,,2013-08-08 17:43:00,
2013-08-08 12:52:00,80.0,77.0,-100.00,SSE,160,2.0,6.0,90,0.00,,,0.01,140.000000,,2013-08-08 17:52:00,
2013-08-08 13:01:00,80.0,77.0,-100.00,SSE,160,2.0,6.0,90,0.00,,,0.01,140.000000,,2013-08-08 18:01:00,
2013-08-08 13:11:00,80.0,77.0,-100.00,SSE,160,2.0,6.0,90,0.00,,,0.01,140.000000,,2013-08-08 18:11:00,
2013-08-08 13:43:00,83.0,78.0,-100.00,SE,137,3.0,10.0,84,0.00,,,0.00,335.000000,,2013-08-08 18:43:00,
2013-08-08 13:53:00,83.0,78.0,-100.00,SE,137,3.0,10.0,84,0.00,,,0.00,335.000000,,2013-08-08 18:53:00,
2013-08-08 14:01:00,83.0,78.0,-100.00,SE,137,3.0,10.0,84,0.00,,,0.00,335.000000,,2013-08-08 19:01:00,
2013-08-08 14:12:00,83.0,78.0,-100.00,SE,137,3.0,10.0,84,0.00,,,0.00,335.000000,,2013-08-08 19:12:00,
2013-08-08 14:43:00,83.0,77.0,-100.00,South,190,2.0,8.0,82,0.00,,,0.00,529.000000,,2013-08-08 19:43:00,
2013-08-08 14:58:00,83.0,77.0,-100.00,South,190,2.0,8.0,82,0.00,,,0.00,529.000000,,2013-08-08 19:58:00,
2013-08-08 15:11:00,83.0,77.0,-100.00,South,190,2.0,8.0,82,0.00,,,0.00,529.000000,,2013-08-08 20:11:00,
2013-08-08 15:42:00,73.0,73.0,-100.00,ESE,112,5.0,18.0,99,0.56,,,0.56,11.000000,,2013-08-08 20:42:00,
2013-08-08 15:52:00,73.0,73.0,-100.00,ESE,112,5.0,18.0,99,0.56,,,0.56,11.000000,,2013-08-08 20:52:00,
2013-08-08 16:01:00,73.0,73.0,-100.00,ESE,112,5.0,18.0,99,0.56,,,0.56,11.000000,,2013-08-08 21:01:00,
2013-08-08 16:14:00,73.0,73.0,-100.00,ESE,112,5.0,18.0,99,0.56,,,0.56,11.000000,,2013-08-08 21:14:00,
2013-08-08 16:15:00,73.0,72.0,-100.00,South,184,2.0,6.0,97,0.00,,,0.56,60.000000,,2013-08-08 21:15:00,
2013-08-08 16:46:00,73.0,72.0,-100.00,South,184,2.0,6.0,97,0.00,,,0.56,60.000000,,2013-08-08 21:46:00,
2013-08-08 16:57:00,73.0,72.0,-100.00,South,184,2.0,6.0,97,0.00,,,0.56,60.000000,,2013-08-08 21:57:00,
2013-08-08 17:04:00,73.0,72.0,-100.00,South,184,2.0,6.0,97,0.00,,,0.56,60.000000,,2013-08-08 22:04:00,
2013-08-08 17:49:00,76.0,74.0,-100.00,South,184,2.0,5.0,93,0.00,,,0.56,157.000000,,2013-08-08 22:49:00,
2013-08-08 17:58:00,76.0,74.0,-100.00,South,184,2.0,5.0,93,0.00,,,0.56,157.000000,,2013-08-08 22:58:00,
2013-08-08 18:04:00,76.0,74.0,-100.00,South,184,2.0,5.0,93,0.00,,,0.56,157.000000,,2013-08-08 23:04:00,
2013-08-08 18:14:00,76.0,74.0,-100.00,South,184,2.0,5.0,93,0.00,,,0.56,157.000000,,2013-08-08 23:14:00,
2013-08-08 18:50:00,80.0,76.0,-100.00,ESE,113,3.0,5.0,87,0.00,,,0.56,253.000000,,2013-08-08 23:50:00,
2013-08-08 18:57:00,80.0,76.0,-100.00,ESE,113,3.0,5.0,87,0.00,,,0.56,253.000000,,2013-08-08 23:57:00,
2013-08-08 19:05:00,80.0,76.0,-100.00,ESE,113,3.0,5.0,87,0.00,,,0.56,253.000000,,2013-08-09 00:05:00,
2013-08-08 19:14:00,80.0,76.0,-100.00,ESE,113,3.0,5.0,87,0.00,,,0.56,253.000000,,2013-08-09 00:14:00,
2013-08-08 19:15:00,78.0,74.0,-100.00,South,170,2.0,5.0,89,0.00,,,0.56,108.000000,,2013-08-09 00:15:00,
2013-08-08 19:48:00,78.0,74.0,-100.00,South,170,2.0,5.0,89,0.00,,,0.56,108.000000,,2013-08-09 00:48:00,
2013-08-08 19:56:00,78.0,74.0,-100.00,South,170,2.0,5.0,89,0.00,,,0.56,108.000000,,2013-08-09 00:56:00,
2013-08-08 20:03:00,78.0,74.0,-100.00,South,170,2.0,5.0,89,0.00,,,0.56,108.000000,,2013-08-09 01:03:00,
2013-08-08 20:59:00,74.0,73.0,-100.00,WSW,246,1.0,4.0,98,0.00,,,0.56,14.000000,,2013-08-09 01:59:00,
2013-08-08 21:04:00,74.0,73.0,-100.00,WSW,246,1.0,4.0,98,0.00,,,0.56,14.000000,,2013-08-09 02:04:00,
2013-08-08 21:14:00,74.0,73.0,-100.00,WSW,246,1.0,4.0,98,0.00,,,0.56,14.000000,,2013-08-09 02:14:00,
2013-08-08 21:15:00,73.0,73.0,-100.00,NNE,15,1.0,3.0,100,0.00,,,0.56,0.000000,,2013-08-09 02:15:00,
2013-08-08 21:47:00,73.0,73.0,-100.00,NNE,15,1.0,3.0,100,0.00,,,0.56,0.000000,,2013-08-09 02:47:00,
2013-08-08 21:57:00,73.0,73.0,-100.00,NNE,15,1.0,3.0,100,0.00,,,0.56,0.000000,,2013-08-09 02:57:00,
2013-08-08 22:06:00,73.0,73.0,-100.00,NNE,15,1.0,3.0,100,0.00,,,0.56,0.000000,,2013-08-09 03:06:00,
2013-08-08 22:56:00,73.0,73.0,-100.00,ESE,104,0.0,3.0,100,0.00,,,0.56,0.000000,,2013-08-09 03:56:00,
2013-08-08 23:01:00,73.0,73.0,-100.00,ESE,104,0.0,3.0,100,0.00,,,0.56,0.000000,,2013-08-09 04:01:00,
2013-08-08 23:12:00,73.0,73.0,-100.00,ESE,104,0.0,3.0,100,0.00,,,0.56,0.000000,,2013-08-09 04:12:00,
2013-08-08 23:43:00,73.0,73.0,-100.00,SSW,206,2.0,4.0,100,0.00,,,0.56,0.000000,,2013-08-09 04:43:00,
2013-08-08 23:53:00,73.0,73.0,-100.00,SSW,206,2.0,4.0,100,0.00,,,0.56,0.000000,,2013-08-09 04:53:00,